Location: Newark
(55.7678°N, 23.6664°E)
Time: 17:14:27
(UTC+00:00)

ISS - Visible Passes

Search period start: 01 October 2020 00:00
Search period end: 11 October 2020 00:00
Orbit: 419 x 421 km, 51.6° (Epoch: 02 October)

Date Brightness Start Highest point End Pass type
(mag) Time Alt. Az. Time Alt. Az. Time Alt. Az.
01 Oct -2.1 17:31:02 10° W 17:33:54 26° SSW 17:35:43 16° SSE visible
02 Oct -2.3 16:43:44 10° W 16:46:45 31° SSW 16:49:46 10° SE visible
02 Oct -1.1 18:21:29 10° WSW 18:22:50 12° SW 18:23:18 12° SSW visible
03 Oct -1.3 17:33:37 10° WSW 17:35:47 16° SSW 17:37:55 10° S visible
04 Oct -1.5 16:46:05 10° WSW 16:48:40 20° SSW 16:51:15 10° SSE visible
06 Oct -0.8 16:49:07 10° WSW 16:50:25 12° SW 16:51:44 10° SSW visible
